• In Hungary
  • List of Countries
  • For 7 days
  • Water Temperature
  • Satellite Maps
  • Weather Map
  • News
  • Weather Widgets
  • user-avatar
    Login

    Hourly Weather Muhorshibir

    Today, 23 September, Sunday

    Time Temperature Precipitation Wind Pressure Humidity
    00:00 +4°C° 0 mm 1 mps 702 mmHg 88%
    01:00 +4°C° 0 mm 1 mps 702 mmHg 88%
    02:00 +3°C° 0 mm 1 mps 701 mmHg 89%
    03:00 +3°C° 0 mm 1 mps 701 mmHg 90%
    04:00 +3°C° 0 mm 1 mps 701 mmHg 90%
    05:00 +3°C° 0 mm 1 mps 701 mmHg 88%
    06:00 +4°C° 0 mm 1 mps 702 mmHg 86%
    07:00 +5°C° 0 mm 1 mps 702 mmHg 84%
    08:00 +6°C° 0 mm 2 mps 701 mmHg 76%
    09:00 +8°C° 0 mm 2 mps 701 mmHg 69%
    10:00 +12°C° 0 mm 2 mps 701 mmHg 61%
    11:00 +13°C° 0 mm 2 mps 701 mmHg 57%
    12:00 +14°C° 0 mm 2 mps 700 mmHg 53%
    13:00 +15°C° 0 mm 2 mps 700 mmHg 49%
    14:00 +15°C° 0 mm 2 mps 699 mmHg 51%
    15:00 +15°C° 0 mm 1 mps 699 mmHg 52%
    16:00 +14°C° 0 mm 1 mps 699 mmHg 53%
    17:00 +12°C° 0 mm 1 mps 699 mmHg 60%
    18:00 +10°C° 0 mm 1 mps 699 mmHg 67%
    19:00 +7°C° 0 mm 1 mps 698 mmHg 75%
    20:00 +7°C° 0 mm 1 mps 699 mmHg 77%
    21:00 +6°C° 0 mm 1 mps 699 mmHg 79%
    22:00 +6°C° 0 mm 1 mps 699 mmHg 81%
    23:00 +5°C° 0 mm 1 mps 699 mmHg 82%

    Tomorrow, 24 September, Monday

    Time Temperature Precipitation Wind Pressure Humidity
    00:00 +5°C° 0 mm 1 mps 699 mmHg 83%
    01:00 +4°C° 0 mm 1 mps 698 mmHg 84%
    02:00 +4°C° 0 mm 1 mps 698 mmHg 85%
    03:00 +4°C° 0 mm 1 mps 698 mmHg 86%
    04:00 +3°C° 0 mm 1 mps 698 mmHg 87%
    05:00 +4°C° 0 mm 1 mps 698 mmHg 84%
    06:00 +5°C° 0 mm 1 mps 698 mmHg 82%
    07:00 +5°C° 0 mm 1 mps 698 mmHg 79%
    08:00 +8°C° 0 mm 1 mps 698 mmHg 70%
    09:00 +10°C° 0 mm 1 mps 698 mmHg 62%
    10:00 +13°C° 0 mm 1 mps 698 mmHg 53%
    11:00 +14°C° 0 mm 1 mps 698 mmHg 49%
    12:00 +15°C° 0 mm 1 mps 697 mmHg 45%
    13:00 +18°C° 0 mm 1 mps 697 mmHg 41%
    14:00 +16°C° 0 mm 1 mps 697 mmHg 44%
    15:00 +15°C° 0 mm 0 mps 697 mmHg 47%
    16:00 +14°C° 0 mm 0 mps 696 mmHg 49%
    17:00 +12°C° 0 mm 0 mps 696 mmHg 54%
    18:00 +10°C° 0 mm 0 mps 696 mmHg 59%
    19:00 +8°C° 0 mm 0 mps 696 mmHg 65%
    20:00 +7°C° 0 mm 0 mps 696 mmHg 67%
    21:00 +7°C° 0 mm 0 mps 696 mmHg 69%
    22:00 +6°C° 0 mm 0 mps 696 mmHg 72%
    23:00 +7°C° 0 mm 1 mps 696 mmHg 73%

    Day after tomorrow, 25 September, Tuesday

    Time Temperature Precipitation Wind Pressure Humidity
    00:00 +6°C° 0 mm 1 mps 696 mmHg 75%
    01:00 +6°C° 0 mm 1 mps 696 mmHg 77%
    02:00 +6°C° 0 mm 1 mps 696 mmHg 78%
    03:00 +5°C° 0 mm 1 mps 696 mmHg 80%
    04:00 +5°C° 0 mm 1 mps 696 mmHg 81%
    05:00 +6°C° 0 mm 1 mps 696 mmHg 78%
    06:00 +6°C° 0 mm 1 mps 696 mmHg 76%
    07:00 +7°C° 0 mm 1 mps 697 mmHg 73%
    08:00 +9°C° 0 mm 0 mps 697 mmHg 65%
    09:00 +12°C° 0 mm 0 mps 697 mmHg 57%
    10:00 +14°C° 0 mm 0 mps 697 mmHg 49%
    11:00 +15°C° 0 mm 0 mps 697 mmHg 46%
    12:00 +16°C° 0 mm 0 mps 697 mmHg 43%
    13:00 +18°C° 0 mm 0 mps 696 mmHg 40%
    14:00 +17°C° 0 mm 0 mps 696 mmHg 42%
    15:00 +17°C° 0 mm 0 mps 696 mmHg 43%
    16:00 +16°C° 0 mm 0 mps 696 mmHg 45%
    17:00 +14°C° 0 mm 0 mps 695 mmHg 51%
    18:00 +12°C° 0 mm 1 mps 695 mmHg 58%
    19:00 +10°C° 0 mm 1 mps 695 mmHg 64%
    20:00 +9°C° 0 mm 1 mps 695 mmHg 66%
    21:00 +9°C° 0 mm 1 mps 695 mmHg 68%
    22:00 +8°C° 0 mm 1 mps 695 mmHg 70%
    23:00 +8°C° 0 mm 1 mps 695 mmHg 72%

    26 September, Wednesday

    Time Temperature Precipitation Wind Pressure Humidity
    00:00 +8°C° 0 mm 1 mps 695 mmHg 73%
    01:00 +7°C° 0 mm 1 mps 695 mmHg 75%
    02:00 +7°C° 0 mm 1 mps 695 mmHg 76%
    03:00 +7°C° 0 mm 1 mps 695 mmHg 78%
    04:00 +6°C° 0 mm 1 mps 695 mmHg 79%
    05:00 +7°C° 0 mm 1 mps 695 mmHg 77%
    06:00 +8°C° 0 mm 1 mps 696 mmHg 76%
    07:00 +8°C° 0 mm 1 mps 696 mmHg 74%
    08:00 +10°C° 0 mm 1 mps 696 mmHg 68%
    09:00 +12°C° 0 mm 1 mps 696 mmHg 61%
    10:00 +14°C° 0 mm 2 mps 696 mmHg 54%
    11:00 +15°C° 0 mm 2 mps 696 mmHg 52%
    12:00 +16°C° 0 mm 2 mps 696 mmHg 49%
    13:00 +17°C° 0 mm 3 mps 696 mmHg 46%
    14:00 +16°C° 0 mm 3 mps 696 mmHg 49%
    15:00 +14°C° 0 mm 3 mps 696 mmHg 53%
    16:00 +14°C° 0 mm 3 mps 696 mmHg 56%
    17:00 +12°C° 0 mm 3 mps 696 mmHg 63%
    18:00 +10°C° 0 mm 3 mps 696 mmHg 70%
    19:00 +9°C° 0 mm 2 mps 696 mmHg 78%
    20:00 +8°C° 0 mm 2 mps 696 mmHg 81%
    21:00 +8°C° 0 mm 2 mps 697 mmHg 85%
    22:00 +8°C° 0 mm 3 mps 697 mmHg 89%
    23:00 +7°C° 0.1 mm 2 mps 697 mmHg 89%

    27 September, Thursday

    Time Temperature Precipitation Wind Pressure Humidity
    00:00 +7°C° 0.1 mm 2 mps 697 mmHg 89%
    01:00 +7°C° 0.1 mm 2 mps 697 mmHg 89%
    02:00 +6°C° 0 mm 2 mps 697 mmHg 90%
    03:00 +6°C° 0 mm 2 mps 697 mmHg 91%
    04:00 +5°C° 0 mm 2 mps 697 mmHg 92%
    05:00 +6°C° 0 mm 2 mps 698 mmHg 90%
    06:00 +5°C° 0 mm 3 mps 698 mmHg 89%
    07:00 +5°C° 0 mm 3 mps 699 mmHg 87%
    08:00 +5°C° 0 mm 4 mps 699 mmHg 83%
    09:00 +6°C° 0 mm 4 mps 699 mmHg 79%
    10:00 +6°C° 0 mm 5 mps 699 mmHg 74%
    11:00 +7°C° 0 mm 5 mps 699 mmHg 70%
    12:00 +7°C° 0 mm 5 mps 698 mmHg 65%
    13:00 +8°C° 0 mm 5 mps 698 mmHg 60%
    14:00 +8°C° 0.2 mm 5 mps 698 mmHg 61%
    15:00 +8°C° 0.2 mm 6 mps 698 mmHg 61%
    16:00 +7°C° 0.2 mm 6 mps 698 mmHg 62%
    17:00 +6°C° 0.1 mm 5 mps 698 mmHg 69%
    18:00 +5°C° 0.1 mm 4 mps 698 mmHg 75%
    19:00 +3°C° 0.1 mm 3 mps 698 mmHg 81%
    20:00 +3°C° 0 mm 3 mps 698 mmHg 83%
    21:00 +2°C° 0 mm 3 mps 699 mmHg 85%
    22:00 +2°C° 0 mm 3 mps 699 mmHg 87%
    23:00 +1°C° 0 mm 3 mps 699 mmHg 89%

    28 September, Friday

    Time Temperature Precipitation Wind Pressure Humidity
    00:00 +1°C° 0 mm 3 mps 699 mmHg 90%
    01:00 +1°C° 0 mm 3 mps 699 mmHg 91%
    02:00 0°C° 0 mm 3 mps 699 mmHg 91%
    03:00 +1°C° 0 mm 2 mps 700 mmHg 92%
    04:00 +1°C° 0 mm 2 mps 700 mmHg 93%
    05:00 0°C° 0 mm 3 mps 700 mmHg 90%
    06:00 +1°C° 0 mm 3 mps 701 mmHg 88%
    07:00 +1°C° 0 mm 3 mps 701 mmHg 86%
    08:00 +3°C° 0 mm 4 mps 701 mmHg 77%
    09:00 +4°C° 0 mm 4 mps 701 mmHg 67%
    10:00 +6°C° 0 mm 5 mps 701 mmHg 58%
    11:00 +7°C° 0 mm 5 mps 701 mmHg 53%
    12:00 +8°C° 0 mm 6 mps 701 mmHg 48%
    13:00 +9°C° 0 mm 6 mps 701 mmHg 43%
    14:00 +9°C° 0 mm 6 mps 701 mmHg 41%
    15:00 +9°C° 0 mm 5 mps 701 mmHg 40%
    16:00 +8°C° 0 mm 5 mps 701 mmHg 39%
    17:00 +6°C° 0 mm 4 mps 702 mmHg 45%
    18:00 +4°C° 0 mm 3 mps 702 mmHg 51%
    19:00 +3°C° 0 mm 2 mps 702 mmHg 57%
    20:00 +3°C° 0 mm 2 mps 702 mmHg 61%
    21:00 +3°C° 0 mm 1 mps 703 mmHg 65%
    22:00 +3°C° 0 mm 1 mps 703 mmHg 69%
    23:00 +2°C° 0 mm 1 mps 703 mmHg 72%
    Show more